OPS 4682 DEB, 38377

Orbit data source: Space-Track

OPS 4682 DEB, 38377 is space debris in LEO originally from a launch on Sat, 03 Apr 1965 UTC launched from the Air Force Western Test Range (AFWTR). Debris objects in space refer to the collection of defunct objects orbiting the Earth. Examples of debris include non-operational satellites, rocket bodies, and fragments generated from explosions, collisions, or faulty payload assembly.

Loading next visibility...
Identifier
38377, 1965-027CE
Orbit
LEO
Country
Flag of USUS
Related business
Manufacturer
Unknown
Mission
Spacecraft
Bus & Motor
Unknown
Mass
Unknown
Launch date (UTC)
1965-04-03 (61 years ago)
Launch vehicle
Unknown
Launch site
Air Force Western Test Range (AFWTR)
Object type
Payload
Rocket body
Debris
Shape & HBR
Unknown shape, 0.1 m
Radar Cross Section
Small (<0.1 m²)

Expand to show TLE details & history
Last TLE update: 2 days ago

TLE from 2 days ago
0 OPS 4682 DEB
1 38377U 65027CE  26103.97574049  .00000163  00000-0  54095-3 0  9991
2 38377  90.2554   9.8605 0033956 283.5530  76.1808 12.96638307595784
Epoch: 2026-04-13T23:25Z
TLE epoch observation values (Epoch: 2026-04-13T23:25:03.978Z)
Latitude
-0.00005°
Longitude
176.4353°
Altitude
1,272.04 km
Speed
7.223 km/s
True Right ascension
00h 39m 26s
True Declination
0° 00' 00"
Sunlit
Object was in daylight at epoch
Visualization orbit readout
Latitude
Unknown
Longitude
Unknown
Altitude
Unknown
Speed
Unknown
Apparent Right ascension
Unknown
Apparent Declination
Unknown
Sunlit
N/A
Visualization observer readout
Local Sidereal Time
19:16:14
Azimuth
Unknown
Elevation
Unknown
Doppler factor
Unknown
Orbital elements
Apogee altitude
1,298.397 km
Perigee altitude
1,246.44 km
Semi-major axis
7,650.555 km
Eccentricity
0.0034
Inclination
90.2554°
RAAN
9.8605°
Arg. of periapsis
283.553°
True anomaly
76.55902°
Mean anomaly
76.1808°
Eccentric anomaly
76.36987°
Mean motion
3.24342 °/min
Orbital period
110.99 mins
BSTAR
0.00054095
Loading maneuver chart data...
Computing Atmospheric mass density...
Loading historical data...
Loading historical data...
Loading historical data...
Loading historical data...
Loading historical data...
Loading historical data...
Loading historical data...

Documentation

Showing up to 5 results
|